Regional Weather Roundup
Issued by NWS Cleveland, OH

Home | Current Version | Previous Version | Text Only | Print | Product List | Glossary Off
Versions: 1 2 3 4 5 6 7 8 9 10 11 12 13 14 15 16 17 18 19 20 21 22 23 24 25 26 27 28 29 30 31 32 33 34 35 36 37 38 39 40 41 42 43 44 45 46 47 48 49 50

000
ASUS41 KCLE 270810
RWRCLE
OHIO REGIONAL WEATHER ROUNDUP
NATIONAL WEATHER SERVICE WILMINGTON, OH
300 AM EST FRI FEB 27 2015

NOTE: "FAIR" INDICATES FEW OR NO CLOUDS BELOW 12,000 FEET WITH NO
SIGNIFICANT WEATHER AND/OR OBSTRUCTIONS TO VISIBILITY.

OHZ001>008-015>018-024>027-034-035-043-044-270900-
   NORTHWEST OHIO

CITY           SKY/WX    TMP DP  RH WIND       PRES   REMARKS
DEFIANCE       CLEAR     -3  -9  75 CALM      30.40R
FINDLAY        PTCLDY     5  -2  72 CALM      30.36R
TOLEDO EXPRESS CLEAR     -4  -7  87 CALM      30.39R
TOLEDO EXEC    CLEAR      2  -3  80 CALM      30.40R
LIMA           PTCLDY     7   2  80 CALM      30.35R HAZE
$$

OHZ009>014-019>023-028>033-038-089-270900-
   NORTHEAST OHIO

CITY           SKY/WX    TMP DP  RH WIND       PRES   REMARKS
CLE-HOPKINS    CLEAR      2  -4  76 MISG      30.38R
CLE-LAKEFRONT  CLEAR      2  -3  80 NW5       30.37R WCI  -8
CUY CO. ARPT   NOT AVBL
LORAIN-ELYRIA  CLEAR     -2  -5  87 N3        30.36R
ASHTABULA      CLEAR     -5  -8  87 NW3       30.32R
AKRON-CANTON   PTCLDY    -1  -5  82 NW6       30.30R WCI -13
WOOSTER        PTCLDY    -1  -5  82 CALM      30.32R
MANSFIELD      CLOUDY     4   1  88 NW3       30.31R
YOUNGSTOWN     CLEAR      1  -2  87 NW6       30.28R WCI -10
$$

OHZ042-051>053-060>062-070>072-077>081-270900-
  SOUTHWEST OHIO

CITY           SKY/WX    TMP DP  RH WIND       PRES   REMARKS
CINC-COVINGTON FLURRIES  13   6  74 CALM      30.38R
CINC-LUNKEN    CLOUDY     9   5  84 CALM      30.43R
HAMILTON       CLOUDY     8   5  87 CALM      30.42R
DAYTON         CLOUDY     7   3  84 CALM      30.36R
WRIGHT-PAT AFB CLOUDY     8   4  80 CALM      30.37R
DAYTON GENERAL CLOUDY     8   3  80 CALM      30.35R
WILMINGTON     MOCLDY     6   1  80 NW5       30.35R WCI  -3
$$

OHZ036-037-039>041-045>050-054>059-063>069-073>076-082>088-270900-
  CENTRAL AND SOUTHEAST OHIO

CITY           SKY/WX    TMP DP  RH WIND       PRES   REMARKS
COLUMBUS       CLEAR      5   0  79 CALM      30.36R
OSU AIRPORT    MOCLDY     2   0  91 NW7       30.35R WCI -11
BOLTON FIELD   FLURRIES N/A N/A N/A NW3       30.36R
RICKENBACK AFB CLEAR      5   2  86 NW5       30.37R WCI  -4
NEWARK         CLEAR      3  -1  83 NW3       30.34R
MARION         LGT SNOW   7   3  84 CALM      30.35R FOG
LANCASTER      CLEAR      1  -2  87 CALM      30.35R
ZANESVILLE     CLEAR      7   1  76 CALM      30.33R
NEW PHILLY     PTCLDY     5  -1  76 NW3       30.33S HAZE
$$


USA.gov is the U.S. government's official web portal to all federal, state and local government web resources and services.